This demonstration page uses our WeatherBlox Daily Observations layout. Learn more.

Left ArrowRight Arrow

Hourly Observations for January 24, 2022

Temp ( °F °C ) Dew Point ( °F °C ) Humidity (%) Winds ( mph kmh ) Pressure ( in mb ) Visibility ( mi km ) Precip ( " mm )
12:53 am 00:53 Clear 32 0 26 -3.3 79 79 Calm 29.98 1015 10 16 0.00 0.00
1:53 am 01:53 Clear 32 0 25 -3.9 75 75 Calm 29.96 1015 10 16 0.00 0.00
2:53 am 02:53 Clear 31 -0.6 25 -3.9 79 79 Calm 29.96 1015 10 16 0.00 0.00
3:53 am 03:53 Clear 30 -1.1 24 -4.4 79 79 Calm 29.96 1015 10 16 0.00 0.00
4:53 am 04:53 Clear 31 -0.6 24 -4.4 76 76 SW 5 7 29.96 1015 10 16 0.00 0.00
5:53 am 05:53 Clear 30 -1.1 24 -4.4 79 79 Calm 29.96 1015 10 16 0.00 0.00
6:53 am 06:53 Clear 28 -2.2 22 -5.6 78 78 Calm 29.97 1015 10 16 0.00 0.00
7:53 am 07:53 Sunny 28 -2.2 24 -4.4 85 85 SW 3 6 29.99 1016 10 16 0.00 0.00
8:53 am 08:53 Sunny 33 0.6 27 -2.8 78 78 Calm 30.00 1016 10 16 0.00 0.00
9:53 am 09:53 Sunny 39 3.9 27 -2.8 62 62 SSW 3 6 30.00 1016 10 16 0.00 0.00
10:53 am 10:53 Sunny 45 7.2 26 -3.3 48 48 WSW 7 11 30.00 1016 10 16 0.00 0.00
11:53 am 11:53 Sunny 49 9.4 28 -2.2 44 44 undefined N/A 29.98 1015 10 16 0.00 0.00
12:53 pm 12:53 Sunny 53 11.7 29 -1.7 40 40 VRB 5 7 29.95 1014 10 16 0.00 0.00
1:53 pm 13:53 Sunny 57 13.9 28 -2.2 33 33 W 12 19 29.91 1013 10 16 0.00 0.00
2:53 pm 14:53 Sunny 58 14.4 29 -1.7 33 33 VRB 3 6 29.88 1012 10 16 0.00 0.00
3:53 pm 15:53 Sunny 59 15 28 -2.2 31 31 SSW 12 19 29.86 1011 10 16 0.00 0.00
4:53 pm 16:53 Sunny 58 14.4 29 -1.7 33 33 SW 7 11 29.87 1011 10 16 0.00 0.00
5:53 pm 17:53 Sunny 56 13.3 29 -1.7 36 36 SW 5 7 29.88 1012 10 16 0.00 0.00
6:53 pm 18:53 Clear 50 10 31 -0.6 48 48 SSW 3 6 29.91 1013 10 16 0.00 0.00
7:53 pm 19:53 Clear 48 8.9 32 0 54 54 SSW 3 6 29.93 1013 10 16 0.00 0.00
8:53 pm 20:53 Clear 50 10 31 -0.6 48 48 SSW 3 6 29.93 1014 10 16 0.00 0.00
9:53 pm 21:53 Clear 49 9.4 31 -0.6 50 50 SSW 6 9 29.94 1014 10 16 0.00 0.00
10:53 pm 22:53 Clear 49 9.4 31 -0.6 50 50 SSW 3 6 29.93 1013 10 16 0.00 0.00
11:53 pm 23:53 Clear 47 8.3 31 -0.6 54 54 SW 3 6 29.93 1014 10 16 0.00 0.00

Powered by AerisWeather